{"data":{"norad_id":65661,"epoch":"2026-09-20T13:25:18.457824Z","epoch_age_seconds":103535,"freshness":"FRESH","line1":"1 65661U 25211K   26263.55924141  .00011301  00000+0  35185-3 0  9995","line2":"2 65661  97.2839 303.8065 0002471  84.9667 275.1858 15.33442836 56537","mean_motion":15.33442836,"eccentricity":0.0002471,"inclination_deg":97.2839,"raan_deg":303.8065,"arg_perigee_deg":84.9667,"mean_anomaly_deg":275.1858,"bstar":0.00035185,"rev_number":5653,"period_min":93.906337177606,"perigee_km":463.85853806512,"apogee_km":467.24068798928,"semimajor_km":6843.6866130272,"source":"CELESTRAK","updated_at":"2026-09-21T09:00:35.680922Z"}}